Miscellaneous Local Product
Issued by NWS North Platte, NE

Home | Current Version | Previous Version | Text Only | Print | Product List | Glossary On
Versions: 1 2 3 4 5 6 7 8 9 10 11 12 13 14 15 16 17 18 19 20 21 22 23 24 25 26 27 28 29 30 31 32 33 34 35 36 37 38 39 40 41 42 43 44 45 46 47 48 49 50
000
AXUS43 KLBF 120410
MISLBF


WESTERN AND NORTH CENTRAL NEBRASKA HOURLY WEATHER ROUNDUP
NATIONAL WEATHER SERVICE NORTH PLATTE NE
1100 PM CDT FRI JUL 11 2014

***STATIONS NOT REPORTING VARIABLES SUCH AS SKY/WEATHER OR
PRESSURE ARE PROVIDED BY THE NEBRASKA DEPARTMENT OF
ROADS...RAWS...AND APRS NETWORKS...AND ARE NOT UNDER
NATIONAL WEATHER SERVICE QUALITY CONTROL***

...OBSERVATIONS IN AND NEAR THE EASTERN PANHANDLE OF NEBRASKA...

CITY           SKY/WX    TMP DP  RH WIND       PRES   REMARKS
PINE RIDGE     HVY RAIN  62  61  96 NE5       30.16S FOG
CHADRON        LGT RAIN  64  62  93 NE7       30.17R
ALLIANCE         N/A     65  63  93 N20       30.16R
SIDNEY         LGT RAIN  70  66  87 NW10      30.15R
WHITECLAY        N/A     62  61  96 W3          N/A
RUSHVILLE        N/A     62  59  91 NE16        N/A
GORDON           N/A     63  60  91 N18         N/A
CRESCENT LAKE    N/A     69  66  90 N14         N/A
LISCO            N/A     76  68  78 N18         N/A
BIG SPRINGS      N/A     72  68  87 E3          N/A
$$

...OBSERVATIONS IN NORTH CENTRAL NEBRASKA...

CITY           SKY/WX    TMP DP  RH WIND       PRES   REMARKS
VALENTINE      LGT RAIN  75  72  90 CALM      30.06S
THEDFORD       CLOUDY    71  69  94 N12       30.07S THUNDER
AINSWORTH      LGT RAIN  73  72  96 SW8       30.10R
O`NEILL        CLOUDY    75  70  84 E9        30.03F THUNDER
ORD            MOCLDY    74  72  93 NE6       29.99S
BROKEN BOW     CLOUDY    76  73  91 E8        30.00S FOG
BROWNLEE         N/A     76  74  91 E9          N/A
SPRINGVIEW       N/A     74  71  89 CALM        N/A
ROSE             N/A     77  77  99 E8          N/A
NEWPORT          N/A     76  76  99 E8          N/A
SARGENT          N/A     75  73  92 NE3         N/A
COMSTOCK         N/A     80  79  95 E8          N/A
CHAMBERS         N/A     73  71  94 E5          N/A
EWING            N/A     74  71  89 E3          N/A
$$

...OBSERVATIONS IN SOUTHWEST NEBRASKA AND FAR NORTHEAST COLORADO...

CITY           SKY/WX    TMP DP  RH WIND       PRES   REMARKS
WRAY           CLOUDY    66  64  91 NW22      30.14F THUNDER
HOLYOKE        TSTM      72  64  78 S15G28    30.13R
IMPERIAL       CLOUDY    73  68  84 NW13G23   30.07R
OGALLALA       TSTM      69  66  92 SE13      30.07R
NORTH PLATTE   CLOUDY    76  71  85 N5        30.00R
MCCOOK         MOCLDY    83  58  42 S12       29.98R
LEXINGTON      MOCLDY    79  71  77 SE8       29.96F
PAXTON           N/A     76  70  82 N3          N/A
SUTHERLAND       N/A     81  76  84 CALM        N/A
BRADY            N/A     75  71  88 CALM        N/A
GOTHENBURG       N/A     76  70  81 E5          N/A
CALLAWAY         N/A     76  73  92 E12         N/A
$$

...NORTH PLATTE AREA...

CITY           SKY/WX    TMP DP  RH WIND       PRES   REMARKS
AIRPORT        CLOUDY    76  71  85 N5        30.00R
INDIAN HILLS     N/A     77  71  82 CALM        N/A
$$

...SOME WEATHER OBSERVATIONS FROM AROUND THE REGION...

CITY           SKY/WX    TMP DP  RH WIND       PRES   REMARKS
DENVER         MOCLDY    68  60  75 NE5       30.20R
LARAMIE        TSTM      59  58  96 E13       30.34F FOG
CHEYENNE       MOCLDY    63  61  93 N8        30.26R
SCOTTSBLUFF    TSTM      65  64  97 NE18G26   30.18F FOG
RAPID CITY     CLOUDY    67  59  75 S12       30.12F
PIERRE         CLOUDY    73  65  75 NE5       30.01R
WINNER         FAIR      79  64  60 CALM      30.01F
SIOUX FALLS    CLOUDY    76  72  87 CALM      30.02S
OMAHA          CLOUDY    79  73  82 SE8       29.99S
GRAND ISLAND   CLEAR     77  74  90 E6        29.97F
KANSAS CITY    CLEAR     80  71  74 S10       30.05R
WICHITA        CLEAR     78  67  68 S10       30.06R
HAYS           CLEAR     77  57  50 S12       30.03R
LIBERAL        CLEAR     81  55  41 S13       30.09R
GOODLAND       MOCLDY    83  51  33 SW14G22   30.09R
$$



USA.gov is the U.S. government's official web portal to all federal, state and local government web resources and services.